Simultaneous Nadir Overpasses (SNOs) Predictions

Prediction of SNOs between GOES-15 and METOP-B Satellite Orbit:

Table of predicted SNOs for the next 14.0 days since TLE Epoch: 12/11/2021
Index Date Time (GOES-15) GOES-15 Lat,Lon METOP-B Lat,Lon Distance(km) Time Diff (sec)
1 12/11/2021 06:09:45 0.17,-127.88 -0.14,-129.37 169.96 80
2 12/12/2021 05:46:24 0.17,-127.84 0.92,-124.37 395.51 80
3 12/13/2021 18:07:56 -0.16,-127.82 0.11,-128.93 126.54 80
4 12/14/2021 17:44:36 -0.17,-127.79 -1.01,-123.93 438.77 80
5 12/16/2021 06:06:15 0.15,-127.70 -0.03,-128.52 93.40 80
6 12/17/2021 05:42:56 0.16,-127.67 1.09,-123.53 471.43 80
7 12/18/2021 18:04:27 -0.14,-127.63 -0.06,-128.09 51.70 80
8 12/21/2021 06:02:46 0.13,-127.50 0.08,-127.67 20.36 80
9 12/23/2021 17:58:18 -0.12,-127.41 -0.19,-127.24 20.12 80
